Regional Weather Roundup
Issued by NWS Sioux Falls, SD

Home | Current Version | Previous Version | Text Only | Print | Product List | Glossary On
Versions: 1 2 3 4 5 6 7 8 9 10 11 12 13 14 15 16 17 18 19 20 21 22 23 24 25 26 27 28 29 30 31 32 33 34 35 36 37 38 39 40 41 42 43 44 45 46 47 48 49 50
000
ASUS43 KFSD 200510
RWRFSD

WEATHER ROUNDUP FOR SE SOUTH DAKOTA/SW MINNESOTA/NW IOWA
NATIONAL WEATHER SERVICE SIOUX FALLS SD
1200 AM CDT SUN APR 20 2014

NOTE: "FAIR" INDICATES FEW OR NO CLOUDS BELOW 12,000 FEET WITH NO
SIGNIFICANT WEATHER AND OR OBSTRUCTIONS TO VISIBILITY.


SDZ038>040-050-052>070-200600-
SOUTHEAST SOUTH DAKOTA

CITY           SKY/WX    TMP DP  RH WIND       PRES   REMARKS
CHAMBERLAIN      N/A     52  24  33 SE3       30.02S
HURON          PTCLDY    47  31  53 CALM      30.00F
MADISON        FAIR      48  27  43 CALM      30.02F
MITCHELL         N/A     49  28  44 CALM      30.01F
SIOUX FALLS    CLOUDY    55  41  59 NE5       30.01F
WINNER         FAIR      50  17  27 S7        30.02S
YANKTON        CLOUDY    57  34  41 N3        30.01F
$$

MNZ071-072-080-081-089-090-097-098-200600-
SOUTHWEST MINNESOTA

CITY           SKY/WX    TMP DP  RH WIND       PRES   REMARKS
FAIRMONT       CLOUDY    55  48  76 MISG      30.03F
JACKSON        CLOUDY    54  46  76 NE5       30.03S
LUVERNE        LGT RAIN  57  41  54 NE3       30.03S
MARSHALL       MOCLDY    50  36  57 S7        30.01S
MONTEVIDEO     PTCLDY    48  39  71 SW6       30.02S
PIPESTONE      CLOUDY    54  34  47 CALM      30.02F
REDWOOD FALLS  CLOUDY    54  45  71 S5        30.01S
TRACY          CLOUDY    56  43  60 CALM      30.03R
WINDOM         MOCLDY    54  45  71 CALM      30.03S
WORTHINGTON    CLOUDY    55  43  62 NE3       30.05S
$$

IAZ001>003-012>014-020>022-031-032-NEZ013-014-SDZ071-200600-
NORTHWEST IOWA

CITY           SKY/WX    TMP DP  RH WIND       PRES   REMARKS
CHEROKEE       CLOUDY    60  47  61 CALM      29.99S
DENISON        CLOUDY    68  45  42 S15G23    30.00S
ESTHERVILLE    CLOUDY    56  49  77 N6        30.01S
LE MARS        CLOUDY    57  48  72 N7        30.00S
ORANGE CITY    CLOUDY    61  46  59 NE9       30.01S
SHELDON        CLOUDY    57  46  67 NE9       30.01R
SIOUX CITY     CLOUDY    60  48  64 NW8       29.98F
SPENCER        CLOUDY    59  48  67 N9        30.02R
STORM LAKE     CLOUDY    63  45  51 S10       30.01F
$$

ABBREVIATIONS USED IN REMARKS
   TC - TEMPERATURE IN CELSIUS
  WCI - WIND CHILL INDEX
   HX - HEAT INDEX
  VSB - VISIBILITY




USA.gov is the U.S. government's official web portal to all federal, state and local government web resources and services.